Starlink 5716

operational
NORAD ID: 56504 Int'l Des: 2023-065 Owner: SPXS Country: US Constellation: starlink
LEOCIRCULAR

About Starlink 5716

Description loading...

Live Position

Loading 3D Globe...

Upcoming Passes

Altitude History

Altitude vs Time

uPlot chart will show altitude changes over time

Two-Line Element Set

1 56504U 23065B 25304.74091251 -.00001447 00000-0 -92099-4 0 9990
2 56504 43.0038 191.3459 0001224 267.9326 92.1376 15.02518164137222
Epoch: Oct 31, 2025 • Age: 48 hours

Current Status

Altitude 567.4 km
Velocity 7.58 km/s
Sub-Earth Point -32.54°S, 165.81°W
Launch Date May 14, 2023
Age 2.4 years
Type internet

Technical Details

Classification Payload
Mass 305.00 kg
Dry Mass 290.00 kg
Total Mass 305.00 kg
Length 0.20 m
Diameter 2.80 m
Span 9.00 m
Shape Box + pan
Manufacturer SPXS
Bus Type Starlink
Phase Status In Orbit
Owner/State SPXS/US

Large Constellations

Loading constellations...